Kosmos-2500

operational
NORAD ID: 40001 Int'l Des: 2014-032 Owner: VVKO/IACG Country: RU Constellation: GLONASS
MEOCIRCULAR

About Kosmos-2500

Description loading...

Live Position

Loading 3D Globe...

Upcoming Passes

Altitude History

Altitude vs Time

uPlot chart will show altitude changes over time

Two-Line Element Set

1 40001U 14032A 25297.94277044 -.00000035 00000-0 00000+0 0 9995
2 40001 65.3698 321.6928 0009233 214.4431 145.5480 2.13106048 88447
Epoch: Oct 24, 2025 • Age: 29 hours

Current Status

Altitude 19110.6 km
Velocity 3.96 km/s
Sub-Earth Point -11.76°S, 64.57°E
Launch Date Jun 14, 2014
Age 11.3 years
Type other

Technical Details

Classification Payload
Mass 1450.00 kg
Dry Mass 1200.00 kg
Total Mass 1450.00 kg
Length 4.00 m
Diameter 1.50 m
Span 7.80 m
Shape Cyl + Ant + 2 Pan
Manufacturer RESH
Bus Type Uragan
Phase Status In Orbit
Owner/State VVKO/IACG/RU

Large Constellations

Loading constellations...